Flag for Germany Weather past 2 weeks in Dreieich, Hesse, Germany

Now
59 °F

Scattered clouds.


Feels Like: 59 °F
Forecast: 60 / 72 °F
Wind: 1 mph from Northwest

Location: Frankfurt / M-Flughafen

Current Time: Aug 28, 2014 at 11:45:22 AM

Latest Report: Aug 28, 2014 at 10:00 AM


Visibility: 19 mi

Pressure: 30.07 "Hg

Humidity: 83%

Dew point: 54 °F

Location of DreieichLocation

Historic Weather in Dreieich — Graph

°F

Dreieich temperature yesterday

Maximum temperature yesterday: 70 °F (at 4:00 PM)
Minimum temperature yesterday: 55 °F (at 7:00 AM)
Average temperature yesterday: 61 °F

Past Weeks' High & Low Weather Summary

 TemperatureHumidityPressure
High71 °F (Aug 19, 4:00 PM)96% (Aug 19, 7:00 AM)30.13 "Hg (Aug 19, 7:00 AM)
Low46 °F (Aug 22, 4:00 AM)32% (Aug 22, 5:00 PM)29.64 "Hg (Aug 13, 5:00 PM)
Average59 °F76%29.94 "Hg
* Reported Aug 13 10:00 AM — Aug 28 10:00 AM, Dreieich, Weather by CustomWeather, © 2014

Note: Actual official high and low records may vary slightly from our data, if they occured in-between our weather recording intervals... More about our weather records

Advertising

Dreieich weather history for previous 24 hours

 ConditionsComfort  
Time TempWeatherWind HumidityBarometerVisibility
10:00 AM
Aug 28
59 °FScattered clouds.1 mph83%30.07 "Hg19 mi
9:00 AM54 °FScattered clouds.1 mph90%30.07 "Hg22 mi
8:00 AM53 °FPartly sunny.1 mph91%30.07 "Hg22 mi
7:00 AM51 °FPartly sunny.2 mph93%30.07 "Hg15 mi
6:00 AM51 °FPassing clouds.1 mph93%30.06 "Hg12 mi
4:00 AM53 °FPassing clouds.2 mph94%30.06 "Hg16 mi
3:00 AM53 °FPassing clouds.2 mph94%30.06 "Hg16 mi
2:00 AM52 °FPassing clouds.2 mph93%30.07 "Hg16 mi
1:00 AM53 °FPassing clouds.1 mph91%30.07 "Hg19 mi
12:00 AM54 °FPassing clouds.1 mph88%30.07 "Hg19 mi
11:00 PM
Aug 27
56 °FPassing clouds.1 mph82%30.06 "Hg25 mi
10:00 PM58 °FPassing clouds.1 mph78%30.06 "Hg25 mi
9:00 PM62 °FPassing clouds.2 mph66%30.04 "Hg25 mi
8:00 PM66 °FScattered clouds.1 mph59%30.03 "Hg25 mi
7:00 PM67 °FScattered clouds.1 mph51%30.03 "Hg25 mi
6:00 PM68 °FScattered clouds.2 mph50%30.02 "Hg25 mi
5:00 PM69 °FScattered clouds.2 mph47%30.02 "Hg25 mi
4:00 PM70 °FScattered clouds.2 mph49%30.02 "Hg25 mi
3:00 PM67 °FScattered clouds.1 mph54%30.02 "Hg25 mi
2:00 PM66 °FScattered clouds.1 mph56%30.03 "Hg25 mi
1:00 PM64 °FScattered clouds.2 mph62%30.03 "Hg19 mi
12:00 PM62 °FScattered clouds.2 mph71%30.03 "Hg19 mi
11:00 AM60 °FPartly sunny.3 mph77%30.01 "Hg19 mi
Weather by CustomWeather, © 2014

See weather overviewHow to use our weather pages